Location: Sankt Anna
(58.3452°N, 16.7040°E)
Time: 15:07:16
(UTC+01:00)

N. Korean satellite - Visible Passes

Search period start: 19 November 2019 00:00
Search period end: 29 November 2019 00:00
Orbit: 456 x 506 km, 97.2° (Epoch: 18 November)

Date Brightness Start Highest point End Pass type
(mag) Time Alt. Az. Time Alt. Az. Time Alt. Az.
19 Nov 8.2 05:31:57 10° NNE 05:35:29 39° E 05:38:59 10° SSE visible
19 Nov 6.7 16:15:31 10° SSE 16:19:08 58° ENE 16:22:49 10° N visible
19 Nov 9.5 17:50:04 10° SW 17:52:52 20° W 17:55:41 10° NW visible
20 Nov 9.2 05:06:51 10° NE 05:09:55 24° E 05:12:57 10° SSE visible
20 Nov 6.8 06:39:56 10° N 06:43:33 48° WNW 06:47:07 10° SW visible
20 Nov 8.6 17:23:54 10° SSW 17:27:16 33° W 17:30:41 10° NNW visible
21 Nov 9.9 04:42:07 10° NE 04:44:16 15° E 04:46:25 10° ESE visible
21 Nov 6.6 06:14:27 10° NNE 06:18:12 83° WNW 06:21:54 10° SSW visible
21 Nov 7.4 16:58:07 10° S 17:01:45 56° W 17:05:27 10° NNW visible
22 Nov 7.3 05:49:05 10° NNE 05:52:46 57° E 05:56:24 10° S visible
22 Nov 6.6 16:32:37 10° SSE 16:36:19 84° ENE 16:40:04 10° NNW visible
22 Nov 10.0 18:08:08 10° WSW 18:10:15 15° W 18:12:25 10° NW visible
23 Nov 8.5 05:23:51 10° NNE 05:27:15 33° E 05:30:37 10° SSE visible
23 Nov 7.3 06:57:16 10° N 07:00:41 34° WNW 07:04:02 10° SW visible
23 Nov 6.9 16:07:22 10° SE 16:10:58 49° ENE 16:14:36 10° N visible
23 Nov 9.2 17:41:33 10° SSW 17:44:36 23° W 17:47:39 10° NW visible
24 Nov 9.4 04:58:49 10° NE 05:01:39 20° E 05:04:26 10° SE visible
24 Nov 6.7 06:31:42 10° N 06:35:23 57° WNW 06:38:59 10° SSW visible
24 Nov 8.2 17:15:32 10° SSW 17:19:01 39° W 17:22:33 10° NNW visible
25 Nov 10.1 04:34:19 10° ENE 04:35:57 12° E 04:37:35 10° ESE visible
25 Nov 6.7 06:06:15 10° NNE 06:09:59 83° E 06:13:40 10° SSW visible
25 Nov 7.1 16:49:49 10° S 16:53:32 67° WSW 16:57:15 10° NNW visible
25 Nov 10.3 18:27:00 10° W 18:27:40 10° W 18:28:21 10° WNW visible
26 Nov 7.7 05:40:55 10° NNE 05:44:32 47° E 05:48:04 10° S visible
26 Nov 7.7 07:14:38 10° N 07:17:44 25° WNW 07:20:48 10° WSW visible
26 Nov 6.6 16:24:24 10° SSE 16:28:06 71° ENE 16:31:51 10° NNW visible
26 Nov 9.8 17:59:26 10° SW 18:01:56 17° W 18:04:27 10° NW visible
27 Nov 8.8 05:15:44 10° NNE 05:18:59 28° E 05:22:09 10° SSE visible
27 Nov 7.0 06:48:59 10° N 06:52:29 40° WNW 06:55:55 10° SW visible
27 Nov 7.0 15:59:14 10° SE 16:02:46 42° ENE 16:06:19 10° N visible
27 Nov 8.9 17:33:04 10° SSW 17:36:18 27° W 17:39:33 10° NNW visible
28 Nov 9.6 04:50:48 10° NE 04:53:19 17° E 04:55:48 10° SE visible
28 Nov 6.5 06:23:27 10° N 06:27:09 68° WNW 06:30:46 10° SSW visible
28 Nov 7.8 17:07:08 10° S 17:10:44 46° W 17:14:22 10° NNW visible
